Regional Weather Roundup
Issued by NWS

Home | Current Version | Previous Version | Text Only | Print | Product List | Glossary On
Versions: 1 2 3 4 5 6 7 8 9 10 11 12 13 14 15 16 17 18 19 20 21 22 23 24 25 26 27 28 29 30 31 32 33 34 35 36 37 38 39 40 41 42 43 44 45 46 47 48 49 50
000
ASUS46 KSEW 310610
RWRWA

WASHINGTON REGIONAL WEATHER ROUNDUP
NATIONAL WEATHER SERVICE SEATTLE WA
1100 PM PDT FRI JUL 30 2021

NOTE:"FAIR" INDICATES FEW OR NO CLOUDS BELOW 12,000 FEET WITH NO
SIGNIFICANT WEATHER AND/OR OBSTRUCTIONS TO VISIBILITY.

WAZ507-509-555>559-310700-
SEATTLE, TACOMA, EVERETT, AND VICINITY

CITY           SKY/WX    TMP DP  RH WIND       PRES   REMARKS
EVERETT        PTCLDY    70  49  47 N6        30.00R
6HR MIN TEMP:  67; 6HR MAX TEMP:  85;

BOEING FIELD   PTCLDY    78  56  46 CALM      29.96R
6HR MIN TEMP:  77; 6HR MAX TEMP:  88;

RENTON         PTCLDY    80  54  40 N7        29.95R
6HR MIN TEMP:  79; 6HR MAX TEMP:  92;

SEATAC AIRPORT MOCLDY    79  54  41 NE13      29.97R
6HR MIN TEMP:  79; 6HR MAX TEMP:  92;

JBLM-MCCHORD   MOCLDY    77  51  39 CALM      29.96R
6HR MIN TEMP:  73; 6HR MAX TEMP:  91;

PUYALLUP       FAIR      73  55  53 CALM      29.98S
BREMERTON      PTCLDY    72  54  53 CALM      29.98S
6HR MIN TEMP:  70; 6HR MAX TEMP:  92;

JBLM-FT LEWIS  NOT AVBL
TACOMA NARROWS PTCLDY    74  54  49 N5        29.96R
6HR MIN TEMP:  74; 6HR MAX TEMP:  86;

$$

WAZ001-503-506-510-514-515-310700-
NORTH INTERIOR

CITY           SKY/WX    TMP DP  RH WIND       PRES   REMARKS
BELLINGHAM     CLEAR     69  62  78 S8        29.96R
6HR MIN TEMP:  69; 6HR MAX TEMP:  89;

FRIDAY HARBOR  PTCLDY    59  51  75 CALM      29.96F
6HR MIN TEMP:  57; 6HR MAX TEMP:  84;

EASTSOUND      PTCLDY    68  57  68 SE9       29.94S
PORT ANGELES   PTCLDY    59  52  77 W6        29.99S
6HR MIN TEMP:  59; 6HR MAX TEMP:  77;

EDIZ HOOK      FAIR      55  53  94 W18       29.98S
6HR MIN TEMP:  55; 6HR MAX TEMP:  63;

PORT TOWNSEND  FAIR      64  55  72 VRB5      29.96R
NAS WHIDBEY    MOCLDY    60  52  74 SW3       30.01S
6HR MIN TEMP:  59; 6HR MAX TEMP:  65;

ARLINGTON      PTCLDY    68  53  58 NW3       29.98S
6HR MIN TEMP:  68; 6HR MAX TEMP:  88;

BURLINGTON     CLEAR     63  54  72 CALM      29.97S
$$

WAZ020-022-039-040-504-511-512-310700-
SOUTHWEST INTERIOR

CITY           SKY/WX    TMP DP  RH WIND       PRES   REMARKS
SHELTON        MOCLDY    73  60  63 W6        29.95R
6HR MIN TEMP:  73; 6HR MAX TEMP:  95;

OLYMPIA        MOCLDY    72  51  47 CALM      29.96R
6HR MIN TEMP:  72; 6HR MAX TEMP:  93;

CHEHALIS       FAIR      73  61  64 CALM      29.96S
KELSO          MOCLDY    73  59  61 VRB3      29.96R
6HR MIN TEMP:  73; 6HR MAX TEMP:  95;

VANCOUVER      CLOUDY    84  55  36 VRB6      29.91R
6HR MIN TEMP:  84; 6HR MAX TEMP:  92;

SCAPPOOSE, OR  MOCLDY    84  55  36 N9        29.91R
6HR MIN TEMP:  82; 6HR MAX TEMP:  99;

PORTLAND, OR   CLOUDY    84  58  40 N5        29.92R
6HR MIN TEMP:  84; 6HR MAX TEMP:  92;

$$

WAZ021-516-517-310700-
WASHINGTON COAST

CITY           SKY/WX    TMP DP  RH WIND       PRES   REMARKS
FORKS          CLEAR     57  53  86 N3        30.02R
6HR MIN TEMP:  57; 6HR MAX TEMP:  77;

HOQUIAM        PTCLDY    59  54  83 W6        30.01R
6HR MIN TEMP:  58; 6HR MAX TEMP:  73;

ASTORIA, OR    MOCLDY    57  54  89 SW5       30.01R
6HR MIN TEMP:  56; 6HR MAX TEMP:  68;

$$

WAZ019-023-024-040-567>569-310700-
CASCADE MOUNTAINS AND COLUMBIA GORGE

CITY           SKY/WX    TMP DP  RH WIND       PRES   REMARKS
STAMPEDE PASS  MOCLDY    75  55  49 SW3       30.18R
6HR MIN TEMP:  74; 6HR MAX TEMP:  91;

TROUTDALE, OR  CLOUDY    79  66  64 CALM      29.91R
6HR MIN TEMP:  77; 6HR MAX TEMP:  90;

HOOD RIVER, OR CLOUDY    77  64  65 S3        29.92R
THE DALLES, OR CLOUDY    87  62  43 NW3       29.86R
6HR MIN TEMP:  86; 6HR MAX TEMP:  95; 6HR PCP: TRACE;

$$

WAZ026-027-041>044-520-521-310700-
EAST SLOPES

CITY           SKY/WX    TMP DP  RH WIND       PRES   REMARKS
OMAK           MOCLDY    84  46  26 N7        29.96R
6HR MIN TEMP:  83; 6HR MAX TEMP: 106;

WENATCHEE      MOCLDY    88  46  23 CALM      29.93R
6HR MIN TEMP:  84; 6HR MAX TEMP: 100;

ELLENSBURG     MOCLDY    77  52  41 MISG      29.99R
6HR MIN TEMP:  77; 6HR MAX TEMP: 103;

YAKIMA         CLOUDY    84  51  31 W9        29.92S
6HR MIN TEMP:  79; 6HR MAX TEMP: 104;

SUNNYSIDE ARPT MOCLDY    76  66  71 CALM      29.88S
6HR MIN TEMP:  76; 6HR MAX TEMP: 100;

YAKIMA TC      MOCLDY    89  37  16 N3        29.93S
6HR MIN TEMP:  85; 6HR MAX TEMP: 103;

$$

WAZ028-034-035-310700-
COLUMBIA BASIN

CITY           SKY/WX    TMP DP  RH WIND       PRES   REMARKS
EPHRATA        MOCLDY    86  42  21 N5        29.93R
6HR MIN TEMP:  86; 6HR MAX TEMP: 105;

MOSES LAKE     MOCLDY    84  46  26 N8        29.93R
6HR MIN TEMP:  84; 6HR MAX TEMP: 107;

PASCO          MOCLDY    80  63  55 N10       29.84R
6HR MIN TEMP:  80; 6HR MAX TEMP: 100;

RICHLAND ARPT  MOCLDY    91  52  26 NW5       29.84S
6HR MIN TEMP:  91; 6HR MAX TEMP: 110;

HERMISTON, OR  MOCLDY    87  56  34 W6        29.85S
6HR MIN TEMP:  87; 6HR MAX TEMP: 107;

$$

WAZ036>038-310700-
NORTHEAST WASHINGTON

CITY           SKY/WX    TMP DP  RH WIND       PRES   REMARKS
SPOKANE GEIGER PTCLDY    81  40  23 NW3       30.02S
6HR MIN TEMP:  81; 6HR MAX TEMP: 101;

SPOKANE FELTS  CLEAR     76  49  38 NE5       30.00R
6HR MIN TEMP:  76; 6HR MAX TEMP: 103;

FAIRCHILD AFB  PTCLDY    76  39  27 CALM      30.04R
6HR MIN TEMP:  76; 6HR MAX TEMP: 101;

COEURDALENE,ID CLEAR     75  47  36 E3        30.04R
6HR MIN TEMP:  75; 6HR MAX TEMP: 101;

DEER PARK      CLEAR     74  42  31 N5        30.02S
6HR MIN TEMP:  73; 6HR MAX TEMP: 103;

$$

WAZ029>033-310700-
SOUTHEAST WASHINGTON

CITY           SKY/WX    TMP DP  RH WIND       PRES   REMARKS
PULLMAN        CLEAR     75  42  30 CALM      30.03S
6HR MIN TEMP:  75; 6HR MAX TEMP: 101;

LEWISTON, ID   PTCLDY    89  40  17 SE8       29.91R
6HR MIN TEMP:  89; 6HR MAX TEMP: 108;

WALLA WALLA    PTCLDY    90  41  18 E9        29.87S
6HR MIN TEMP:  88; 6HR MAX TEMP: 108;

PENDLETON, OR  MOCLDY    84  49  29 NW5       29.91S
6HR MIN TEMP:  83; 6HR MAX TEMP: 105;

$$



USA.gov is the U.S. government's official web portal to all federal, state and local government web resources and services.